Showing default

COSMOS 2512, 41099

Orbit data source: Space-Track

COSMOS 2512, 41099 is a Commonwealth of Independent States-origin payload satellite in SSO that was launched on Sat, 05 Dec 2015 UTC via a SOYUZ-2-1V launch vehicle from the Plesetsk Missile And Space Complex (PKMTR). Payloads include a variety of satellites, spacecraft, and rockets equipped with specific instruments for various scientific and technological missions. These include communications satellites like Starlink; space stations such as the ISS; scientific satellites like the Hubble; Earth observation satellites from companies like Planet Labs, Umbra, and HawkEye 360; GPS; miniature CubeSats for education and research; and military/defense satellites.

Loading next visibility...
COSMOS 2512 details
Identifier
41099, 2015-071B
Orbit
SSO
Last TLE update21 hours ago
Origin
Flag of CISPVO? (CIS)
ManufacturerALMAN?
MissionNon-operational Defense Calibration
Bus & MotorSKRL, Unknown motor
Mass16 kg wet, 16 kg dry
Launch date (UTC)
2015-12-05 (9 years ago)
Launch vehicle
SOYUZ-2-1V
Launch site
Plesetsk Missile And Space Complex (PKMTR)
Object type
Payload
Rocket body
Debris
Shape & HBRSphere, 0.8 m
Radar Cross Section0.503 m², Medium (>0.1 m² and < 1m²)

Expand to show TLE details & history

TLE from 21 hours ago
0 COSMOS 2512
1 41099U 15071B   24360.56180957  .00007678  00000-0  12517-2 0  9999
2 41099  98.0992  13.7680 0004999 310.7492  49.3280 14.71232012483817
Epoch: 2024-12-25T13:29Z
Definitive object data (Epoch: 2024-12-25T13:29:00.346Z)
Latitude-0.00006°
Longitude76.96278°
Altitude657.85 km
Speed7.53 km/s
True Right ascension00h 55m 04s
True Declination0° 00' 00"
Sunlit
Object was in daylight at TLE epoch
Visualization TLE readout
Latitude-44.92716°
Longitude-110.2995°
Altitude673.998 km
Speed7.519 km/s
Apparent Right ascension16h 50m 36s
Apparent Declination-67° 17' 48"
Sunlit
Object is in daylight
Visualization observer readout
Local Sidereal Time09:26:37
Azimuth149.788° SSE
Elevation-44.268°
Doppler factor1
Orbital elements
Apogee altitude657.715 km
Perigee altitude650.684 km
Semi-major axis7,032.336 km
Eccentricity0.0004999
Inclination98.0992°
RAAN13.768°
Arg. of periapsis310.7492°
True anomaly49.37147°
Mean anomaly49.328°
Eccentric anomaly49.34973°
Mean motion3.68039 °/min
BSTAR0.0012517
Orbital period97.82 mins
Loading maneuver chart data...
Loading historical data...
Loading historical data...
Loading historical data...
Loading historical data...
Loading historical data...
Loading historical data...
Loading historical data...

COSMOS 2512 Visibility forecast

Observer location: undefined°, undefined

Span
Click to sort rows by Start time (UTC) header in descending order
Start Az.
Max El. time (UTC)
Max El. Az.
Max El.
End time (UTC)
End Az.
5 mins2024-12-26 12:56:30.092Z61.41° ENE2024-12-26 12:58:30.092Z92.045° ESE16.926°2024-12-26 13:01:30.092Z134.72° SE
7 mins2024-12-26 14:32:30.092Z351.353° N2024-12-26 14:35:30.092Z290.379° WNW33.492°2024-12-26 14:39:30.092Z220.015° SW
4 mins2024-12-26 23:56:30.092Z85.489° E2024-12-26 23:57:30.092Z70.244° E15.509°2024-12-27 00:00:30.092Z27.669° NE
7 mins2024-12-27 01:31:30.092Z193.678° SSW2024-12-27 01:34:30.092Z270.465° WNW36.614°2024-12-27 01:38:30.092Z335.084° NNW
|